Year,Month,Day,Hour,Minute,Value (Times are PST for temperature in C)
2006,07,21,00,00,21.90
2006,07,21,00,01,21.90
2006,07,21,00,02,21.80
2006,07,21,00,03,21.80
2006,07,21,00,04,21.80
2006,07,21,00,05,21.90
2006,07,21,00,06,21.90
2006,07,21,00,07,21.90
2006,07,21,00,08,22.00
2006,07,21,00,09,22.00
2006,07,21,00,10,21.90
2006,07,21,00,11,21.90
2006,07,21,00,12,21.80
2006,07,21,00,13,21.80
2006,07,21,00,14,21.80
2006,07,21,00,15,21.80
2006,07,21,00,16,21.80
2006,07,21,00,17,21.80
2006,07,21,00,18,21.70
2006,07,21,00,19,21.70
2006,07,21,00,20,21.70
2006,07,21,00,21,21.70
2006,07,21,00,22,21.70
2006,07,21,00,23,21.70
2006,07,21,00,24,21.80
2006,07,21,00,25,21.80
2006,07,21,00,26,21.80
2006,07,21,00,27,21.90
2006,07,21,00,28,21.90
2006,07,21,00,29,21.90
2006,07,21,00,30,21.90
2006,07,21,00,31,21.90
2006,07,21,00,32,22.00
2006,07,21,00,33,22.00
2006,07,21,00,34,22.00
2006,07,21,00,35,22.00
2006,07,21,00,36,21.90
2006,07,21,00,37,21.90
2006,07,21,00,38,21.80
2006,07,21,00,39,21.80
2006,07,21,00,40,21.70
2006,07,21,00,41,21.70
2006,07,21,00,42,21.60
2006,07,21,00,43,21.60
2006,07,21,00,44,21.60
2006,07,21,00,45,21.60
2006,07,21,00,46,21.50
2006,07,21,00,47,21.40
2006,07,21,00,48,21.30
2006,07,21,00,49,21.30
2006,07,21,00,50,21.30
2006,07,21,00,51,21.30
2006,07,21,00,52,21.30
2006,07,21,00,53,21.30
2006,07,21,00,54,21.30
2006,07,21,00,55,21.30
2006,07,21,00,56,21.30
2006,07,21,00,57,21.20
2006,07,21,00,58,21.20
2006,07,21,00,59,21.10
2006,07,21,01,00,21.00
2006,07,21,01,01,21.00
2006,07,21,01,02,21.00
2006,07,21,01,03,21.00
2006,07,21,01,04,21.00
2006,07,21,01,05,21.00
2006,07,21,01,06,21.00
2006,07,21,01,07,21.00
2006,07,21,01,08,21.00
2006,07,21,01,09,21.10
2006,07,21,01,10,21.10
2006,07,21,01,11,21.00
2006,07,21,01,12,21.00
2006,07,21,01,13,21.00
2006,07,21,01,14,20.90
2006,07,21,01,15,20.90
2006,07,21,01,16,20.80
2006,07,21,01,17,20.80
2006,07,21,01,18,20.80
2006,07,21,01,19,20.70
2006,07,21,01,20,20.60
2006,07,21,01,21,20.40
2006,07,21,01,22,20.30
2006,07,21,01,23,20.20
2006,07,21,01,24,20.20
2006,07,21,01,25,20.20
2006,07,21,01,26,20.20
2006,07,21,01,27,20.30
2006,07,21,01,28,20.30
2006,07,21,01,29,20.30
2006,07,21,01,30,20.30
2006,07,21,01,31,20.30
2006,07,21,01,32,20.30
2006,07,21,01,33,20.30
2006,07,21,01,34,20.30
2006,07,21,01,35,20.30
2006,07,21,01,36,20.40
2006,07,21,01,37,20.40
2006,07,21,01,38,20.40
2006,07,21,01,39,20.40
2006,07,21,01,40,20.40
2006,07,21,01,41,20.50
2006,07,21,01,42,20.50
2006,07,21,01,43,20.40
2006,07,21,01,44,20.40
2006,07,21,01,45,20.40
2006,07,21,01,46,20.40
2006,07,21,01,47,20.30
2006,07,21,01,48,20.30
2006,07,21,01,49,20.30
2006,07,21,01,50,20.40
2006,07,21,01,51,20.40
2006,07,21,01,52,20.40
2006,07,21,01,53,20.40
2006,07,21,01,54,20.40
2006,07,21,01,55,20.30
2006,07,21,01,56,20.30
2006,07,21,01,57,20.30
2006,07,21,01,58,20.30
2006,07,21,01,59,20.30
2006,07,21,02,00,20.30
2006,07,21,02,01,20.30
2006,07,21,02,02,20.30
2006,07,21,02,03,20.30
2006,07,21,02,04,20.30
2006,07,21,02,05,20.30
2006,07,21,02,06,20.30
2006,07,21,02,07,20.30
2006,07,21,02,08,20.30
2006,07,21,02,09,20.30
2006,07,21,02,10,20.40
2006,07,21,02,11,20.40
2006,07,21,02,12,20.40
2006,07,21,02,13,20.40
2006,07,21,02,14,20.40
2006,07,21,02,15,20.40
2006,07,21,02,16,20.40
2006,07,21,02,17,20.30
2006,07,21,02,18,20.20
2006,07,21,02,19,20.20
2006,07,21,02,20,20.20
2006,07,21,02,21,20.20
2006,07,21,02,22,20.20
2006,07,21,02,23,20.20
2006,07,21,02,24,20.20
2006,07,21,02,25,20.20
2006,07,21,02,26,20.20
2006,07,21,02,27,20.20
2006,07,21,02,28,20.20
2006,07,21,02,29,20.20
2006,07,21,02,30,20.20
2006,07,21,02,31,20.20
2006,07,21,02,32,20.20
2006,07,21,02,33,20.20
2006,07,21,02,34,20.20
2006,07,21,02,35,20.20
2006,07,21,02,36,20.20
2006,07,21,02,37,20.20
2006,07,21,02,38,20.20
2006,07,21,02,39,20.20
2006,07,21,02,40,20.20
2006,07,21,02,41,20.10
2006,07,21,02,42,20.10
2006,07,21,02,43,20.00
2006,07,21,02,44,19.90
2006,07,21,02,45,19.90
2006,07,21,02,46,19.90
2006,07,21,02,47,19.90
2006,07,21,02,48,19.80
2006,07,21,02,49,19.80
2006,07,21,02,50,19.80
2006,07,21,02,51,19.80
2006,07,21,02,52,19.80
2006,07,21,02,53,19.80
2006,07,21,02,54,19.80
2006,07,21,02,55,19.80
2006,07,21,02,56,19.80
2006,07,21,02,57,19.80
2006,07,21,02,58,19.80
2006,07,21,02,59,19.80
2006,07,21,03,00,19.80
2006,07,21,03,01,19.80
2006,07,21,03,02,19.70
2006,07,21,03,03,19.60
2006,07,21,03,04,19.60
2006,07,21,03,05,19.60
2006,07,21,03,06,19.50
2006,07,21,03,07,19.50
2006,07,21,03,08,19.40
2006,07,21,03,09,19.40
2006,07,21,03,10,19.40
2006,07,21,03,11,19.40
2006,07,21,03,12,19.30
2006,07,21,03,13,19.30
2006,07,21,03,14,19.20
2006,07,21,03,15,19.20
2006,07,21,03,16,19.20
2006,07,21,03,17,19.20
2006,07,21,03,18,19.10
2006,07,21,03,19,19.10
2006,07,21,03,20,19.10
2006,07,21,03,21,19.10
2006,07,21,03,22,19.10
2006,07,21,03,23,19.10
2006,07,21,03,24,19.10
2006,07,21,03,25,19.00
2006,07,21,03,26,18.90
2006,07,21,03,27,18.90
2006,07,21,03,28,18.90
2006,07,21,03,29,18.90
2006,07,21,03,30,19.00
2006,07,21,03,31,19.10
2006,07,21,03,32,19.10
2006,07,21,03,33,19.10
2006,07,21,03,34,19.10
2006,07,21,03,35,19.20
2006,07,21,03,36,19.20
2006,07,21,03,37,19.20
2006,07,21,03,38,19.20
2006,07,21,03,39,19.20
2006,07,21,03,40,19.20
2006,07,21,03,41,19.20
2006,07,21,03,42,19.10
2006,07,21,03,43,19.10
2006,07,21,03,44,19.10
2006,07,21,03,45,19.00
2006,07,21,03,46,18.90
2006,07,21,03,47,18.90
2006,07,21,03,48,18.90
2006,07,21,03,49,18.90
2006,07,21,03,50,18.90
2006,07,21,03,51,18.90
2006,07,21,03,52,18.90
2006,07,21,03,53,19.00
2006,07,21,03,54,19.10
2006,07,21,03,55,19.10
2006,07,21,03,56,19.10
2006,07,21,03,57,19.00
2006,07,21,03,58,18.90
2006,07,21,03,59,18.90
2006,07,21,04,00,18.90
2006,07,21,04,01,18.90
2006,07,21,04,02,18.90
2006,07,21,04,03,18.90
2006,07,21,04,04,18.90
2006,07,21,04,05,18.90
2006,07,21,04,06,18.90
2006,07,21,04,07,18.90
2006,07,21,04,08,18.90
2006,07,21,04,09,18.90
2006,07,21,04,10,18.90
2006,07,21,04,11,19.10
2006,07,21,04,12,19.10
2006,07,21,04,13,19.10
2006,07,21,04,14,19.10
2006,07,21,04,15,19.20
2006,07,21,04,16,19.20
2006,07,21,04,17,19.20
2006,07,21,04,18,19.20
2006,07,21,04,19,19.30
2006,07,21,04,20,19.30
2006,07,21,04,21,19.20
2006,07,21,04,22,19.20
2006,07,21,04,23,19.20
2006,07,21,04,24,19.20
2006,07,21,04,25,19.20
2006,07,21,04,26,19.10
2006,07,21,04,27,19.10
2006,07,21,04,28,19.10
2006,07,21,04,29,19.10
2006,07,21,04,30,19.10
2006,07,21,04,31,19.10
2006,07,21,04,32,19.10
2006,07,21,04,33,19.10
2006,07,21,04,34,19.10
2006,07,21,04,35,18.90
2006,07,21,04,36,18.90
2006,07,21,04,37,18.90
2006,07,21,04,38,18.90
2006,07,21,04,39,18.90
2006,07,21,04,40,19.10
2006,07,21,04,41,19.10
2006,07,21,04,42,19.10
2006,07,21,04,43,19.10
2006,07,21,04,44,19.20
2006,07,21,04,45,19.20
2006,07,21,04,46,19.10
2006,07,21,04,47,19.10
2006,07,21,04,48,18.90
2006,07,21,04,49,18.90
2006,07,21,04,50,18.70
2006,07,21,04,51,18.70
2006,07,21,04,52,18.60
2006,07,21,04,53,18.60
2006,07,21,04,54,18.60
2006,07,21,04,55,18.50
2006,07,21,04,56,18.60
2006,07,21,04,57,18.60
2006,07,21,04,58,18.60
2006,07,21,04,59,18.60
2006,07,21,05,00,18.60
2006,07,21,05,01,18.50
2006,07,21,05,02,18.50
2006,07,21,05,03,18.50
2006,07,21,05,04,18.40
2006,07,21,05,05,18.40
2006,07,21,05,06,18.50
2006,07,21,05,07,18.50
2006,07,21,05,08,18.50
2006,07,21,05,09,18.60
2006,07,21,05,10,18.70
2006,07,21,05,11,18.80
2006,07,21,05,12,18.90
2006,07,21,05,13,19.10
2006,07,21,05,14,19.20
2006,07,21,05,15,19.30
2006,07,21,05,16,19.50
2006,07,21,05,17,19.60
2006,07,21,05,18,19.80
2006,07,21,05,19,19.90
2006,07,21,05,20,20.00
2006,07,21,05,21,20.10
2006,07,21,05,22,20.20
2006,07,21,05,23,20.30
2006,07,21,05,24,20.30
2006,07,21,05,25,20.40
2006,07,21,05,26,20.40
2006,07,21,05,27,20.50
2006,07,21,05,28,20.50
2006,07,21,05,29,20.50
2006,07,21,05,30,20.50
2006,07,21,05,31,20.50
2006,07,21,05,32,20.50
2006,07,21,05,33,20.50
2006,07,21,05,34,20.40
2006,07,21,05,35,20.20
2006,07,21,05,36,20.10
2006,07,21,05,37,19.90
2006,07,21,05,38,19.80
2006,07,21,05,39,19.70
2006,07,21,05,40,19.70
2006,07,21,05,41,19.60
2006,07,21,05,42,19.60
2006,07,21,05,43,19.60
2006,07,21,05,44,19.60
2006,07,21,05,45,19.70
2006,07,21,05,46,19.70
2006,07,21,05,47,19.80
2006,07,21,05,48,19.80
2006,07,21,05,49,19.80
2006,07,21,05,50,19.80
2006,07,21,05,51,19.80
2006,07,21,05,52,19.80
2006,07,21,05,53,19.80
2006,07,21,05,54,19.70
2006,07,21,05,55,19.70
2006,07,21,05,56,19.70
2006,07,21,05,57,19.70
2006,07,21,05,58,19.70
2006,07,21,05,59,19.70
2006,07,21,06,00,19.60
2006,07,21,06,01,19.60
2006,07,21,06,02,19.70
2006,07,21,06,03,19.70
2006,07,21,06,04,19.70
2006,07,21,06,05,19.70
2006,07,21,06,06,19.80
2006,07,21,06,07,19.80
2006,07,21,06,08,19.90
2006,07,21,06,09,19.90
2006,07,21,06,10,20.00
2006,07,21,06,11,20.10
2006,07,21,06,12,20.20
2006,07,21,06,13,20.20
2006,07,21,06,14,20.20
2006,07,21,06,15,20.30
2006,07,21,06,16,20.30
2006,07,21,06,17,20.40
2006,07,21,06,18,20.40
2006,07,21,06,19,20.40
2006,07,21,06,20,20.40
2006,07,21,06,21,20.40
2006,07,21,06,22,20.30
2006,07,21,06,23,20.30
2006,07,21,06,24,20.30
2006,07,21,06,25,20.40
2006,07,21,06,26,20.50
2006,07,21,06,27,20.50
2006,07,21,06,28,20.60
2006,07,21,06,29,20.70
2006,07,21,06,30,20.80
2006,07,21,06,31,21.00
2006,07,21,06,32,21.00
2006,07,21,06,33,21.10
2006,07,21,06,34,21.30
2006,07,21,06,35,21.30
2006,07,21,06,36,21.40
2006,07,21,06,37,21.40
2006,07,21,06,38,21.40
2006,07,21,06,39,21.60
2006,07,21,06,40,21.60
2006,07,21,06,41,21.60
2006,07,21,06,42,21.60
2006,07,21,06,43,21.60
2006,07,21,06,44,21.70
2006,07,21,06,45,21.70
2006,07,21,06,46,21.70
2006,07,21,06,47,21.70
2006,07,21,06,48,21.80
2006,07,21,06,49,21.80
2006,07,21,06,50,21.80
2006,07,21,06,51,21.80
2006,07,21,06,52,21.80
2006,07,21,06,53,21.80
2006,07,21,06,54,21.80
2006,07,21,06,55,21.80
2006,07,21,06,56,21.80
2006,07,21,06,57,21.80
2006,07,21,06,58,21.80
2006,07,21,06,59,21.80
2006,07,21,07,00,21.80
2006,07,21,07,01,21.80
2006,07,21,07,02,21.80
2006,07,21,07,03,21.80
2006,07,21,07,04,21.80
2006,07,21,07,05,21.70
2006,07,21,07,06,21.70
2006,07,21,07,07,21.70
2006,07,21,07,08,21.70
2006,07,21,07,09,21.70
2006,07,21,07,10,21.70
2006,07,21,07,11,21.70
2006,07,21,07,12,21.70
2006,07,21,07,13,21.70
2006,07,21,07,14,21.70
2006,07,21,07,15,21.80
2006,07,21,07,16,21.80
2006,07,21,07,17,21.90
2006,07,21,07,18,21.90
2006,07,21,07,19,21.90
2006,07,21,07,20,22.00
2006,07,21,07,21,22.00
2006,07,21,07,22,22.00
2006,07,21,07,23,22.00
2006,07,21,07,24,22.00
2006,07,21,07,25,22.00
2006,07,21,07,26,22.00
2006,07,21,07,27,22.00
2006,07,21,07,28,22.00
2006,07,21,07,29,22.00
2006,07,21,07,30,22.10
2006,07,21,07,31,22.10
2006,07,21,07,32,22.10
2006,07,21,07,33,22.20
2006,07,21,07,34,22.20
2006,07,21,07,35,22.30
2006,07,21,07,36,22.30
2006,07,21,07,37,22.30
2006,07,21,07,38,22.30
2006,07,21,07,39,22.30
2006,07,21,07,40,22.20
2006,07,21,07,41,22.20
2006,07,21,07,42,22.20
2006,07,21,07,43,22.20
2006,07,21,07,44,22.20
2006,07,21,07,45,22.20
2006,07,21,07,46,22.20
2006,07,21,07,47,22.20
2006,07,21,07,48,22.30
2006,07,21,07,49,22.30
2006,07,21,07,50,22.30
2006,07,21,07,51,22.40
2006,07,21,07,52,22.50
2006,07,21,07,53,22.50
2006,07,21,07,54,22.60
2006,07,21,07,55,22.70
2006,07,21,07,56,22.70
2006,07,21,07,57,22.80
2006,07,21,07,58,22.90
2006,07,21,07,59,22.90
2006,07,21,08,00,22.90
2006,07,21,08,01,23.00
2006,07,21,08,02,23.10
2006,07,21,08,03,23.20
2006,07,21,08,04,23.20
2006,07,21,08,05,23.30
2006,07,21,08,06,23.30
2006,07,21,08,07,23.50
2006,07,21,08,08,23.60
2006,07,21,08,09,23.70
2006,07,21,08,10,23.70
2006,07,21,08,11,23.80
2006,07,21,08,12,23.80
2006,07,21,08,13,23.80
2006,07,21,08,14,23.70
2006,07,21,08,15,23.70
2006,07,21,08,16,23.70
2006,07,21,08,17,23.60
2006,07,21,08,18,23.60
2006,07,21,08,19,23.70
2006,07,21,08,20,23.70
2006,07,21,08,21,23.70
2006,07,21,08,22,23.80
2006,07,21,08,23,23.80
2006,07,21,08,24,23.70
2006,07,21,08,25,23.70
2006,07,21,08,26,23.70
2006,07,21,08,27,23.60
2006,07,21,08,28,23.70
2006,07,21,08,29,23.70
2006,07,21,08,30,23.70
2006,07,21,08,31,23.70
2006,07,21,08,32,23.60
2006,07,21,08,33,23.60
2006,07,21,08,34,23.60
2006,07,21,08,35,23.70
2006,07,21,08,36,23.70
2006,07,21,08,37,23.70
2006,07,21,08,38,23.60
2006,07,21,08,39,23.50
2006,07,21,08,40,23.30
2006,07,21,08,41,23.30
2006,07,21,08,42,23.20
2006,07,21,08,43,23.20
2006,07,21,08,44,23.30
2006,07,21,08,45,23.30
2006,07,21,08,46,23.30
2006,07,21,08,47,23.30
2006,07,21,08,48,23.40
2006,07,21,08,49,23.40
2006,07,21,08,50,23.50
2006,07,21,08,51,23.60
2006,07,21,08,52,23.70
2006,07,21,08,53,23.80
2006,07,21,08,54,23.90
2006,07,21,08,55,23.90
2006,07,21,08,56,23.90
2006,07,21,08,57,23.90
2006,07,21,08,58,23.80
2006,07,21,08,59,23.80
2006,07,21,09,00,23.80
2006,07,21,09,01,23.90
2006,07,21,09,02,23.90
2006,07,21,09,03,24.00
2006,07,21,09,04,24.10
2006,07,21,09,05,24.10
2006,07,21,09,06,24.10
2006,07,21,09,07,24.10
2006,07,21,09,08,24.10
2006,07,21,09,09,24.10
2006,07,21,09,10,24.10
2006,07,21,09,11,24.10
2006,07,21,09,12,24.00
2006,07,21,09,13,23.90
2006,07,21,09,14,23.90
2006,07,21,09,15,23.90
2006,07,21,09,16,23.90
2006,07,21,09,17,23.90
2006,07,21,09,18,23.90
2006,07,21,09,19,23.90
2006,07,21,09,20,23.90
2006,07,21,09,21,23.90
2006,07,21,09,22,23.90
2006,07,21,09,23,24.00
2006,07,21,09,24,24.00
2006,07,21,09,25,24.00
2006,07,21,09,26,24.10
2006,07,21,09,27,24.20
2006,07,21,09,28,24.30
2006,07,21,09,29,24.40
2006,07,21,09,30,24.50
2006,07,21,09,31,24.50
2006,07,21,09,32,24.60
2006,07,21,09,33,24.70
2006,07,21,09,34,24.80
2006,07,21,09,35,24.80
2006,07,21,09,36,24.90
2006,07,21,09,37,24.80
2006,07,21,09,38,24.80
2006,07,21,09,39,24.70
2006,07,21,09,40,24.70
2006,07,21,09,41,24.70
2006,07,21,09,42,24.50
2006,07,21,09,43,24.50
2006,07,21,09,44,24.50
2006,07,21,09,45,24.60
2006,07,21,09,46,24.60
2006,07,21,09,47,24.60
2006,07,21,09,48,24.70
2006,07,21,09,49,24.80
2006,07,21,09,50,24.80
2006,07,21,09,51,24.90
2006,07,21,09,52,24.80
2006,07,21,09,53,24.90
2006,07,21,09,54,25.00
2006,07,21,09,55,25.10
2006,07,21,09,56,25.20
2006,07,21,09,57,25.20
2006,07,21,09,58,25.20
2006,07,21,09,59,25.30
2006,07,21,10,00,25.40
2006,07,21,10,01,25.50
2006,07,21,10,02,25.50
2006,07,21,10,03,25.50
2006,07,21,10,04,25.60
2006,07,21,10,05,25.60
2006,07,21,10,06,25.50
2006,07,21,10,07,25.50
2006,07,21,10,08,25.50
2006,07,21,10,09,25.50
2006,07,21,10,10,25.50
2006,07,21,10,11,25.50
2006,07,21,10,12,25.50
2006,07,21,10,13,25.60
2006,07,21,10,14,25.70
2006,07,21,10,15,25.80
2006,07,21,10,16,25.90
2006,07,21,10,17,25.90
2006,07,21,10,18,26.00
2006,07,21,10,19,25.90
2006,07,21,10,20,25.80
2006,07,21,10,21,25.70
2006,07,21,10,22,25.70
2006,07,21,10,23,25.60
2006,07,21,10,24,25.60
2006,07,21,10,25,25.60
2006,07,21,10,26,25.60
2006,07,21,10,27,25.70
2006,07,21,10,28,25.70
2006,07,21,10,29,25.60
2006,07,21,10,30,25.60
2006,07,21,10,31,25.60
2006,07,21,10,32,25.60
2006,07,21,10,33,25.60
2006,07,21,10,34,25.60
2006,07,21,10,35,25.60
2006,07,21,10,36,25.60
2006,07,21,10,37,25.70
2006,07,21,10,38,25.80
2006,07,21,10,39,25.90
2006,07,21,10,40,25.90
2006,07,21,10,41,26.00
2006,07,21,10,42,26.10
2006,07,21,10,43,26.20
2006,07,21,10,44,26.30
2006,07,21,10,45,26.40
2006,07,21,10,46,26.40
2006,07,21,10,47,26.50
2006,07,21,10,48,26.50
2006,07,21,10,49,26.60
2006,07,21,10,50,26.60
2006,07,21,10,51,26.60
2006,07,21,10,52,26.60
2006,07,21,10,53,26.60
2006,07,21,10,54,26.60
2006,07,21,10,55,26.60
2006,07,21,10,56,26.60
2006,07,21,10,57,26.60
2006,07,21,10,58,26.70
2006,07,21,10,59,26.70
2006,07,21,11,00,26.80
2006,07,21,11,01,26.80
2006,07,21,11,02,26.80
2006,07,21,11,03,26.80
2006,07,21,11,04,26.80
2006,07,21,11,05,26.70
2006,07,21,11,06,26.60
2006,07,21,11,07,26.70
2006,07,21,11,08,26.70
2006,07,21,11,09,26.60
2006,07,21,11,10,26.70
2006,07,21,11,11,26.70
2006,07,21,11,12,26.70
2006,07,21,11,13,26.70
2006,07,21,11,14,26.70
2006,07,21,11,15,26.70
2006,07,21,11,16,26.60
2006,07,21,11,17,26.50
2006,07,21,11,18,26.40
2006,07,21,11,19,26.40
2006,07,21,11,20,26.40
2006,07,21,11,21,26.50
2006,07,21,11,22,26.50
2006,07,21,11,23,26.40
2006,07,21,11,24,26.40
2006,07,21,11,25,26.50
2006,07,21,11,26,26.60
2006,07,21,11,27,26.70
2006,07,21,11,28,26.70
2006,07,21,11,29,26.70
2006,07,21,11,30,26.70
2006,07,21,11,31,26.80
2006,07,21,11,32,26.90
2006,07,21,11,33,27.00
2006,07,21,11,34,27.20
2006,07,21,11,35,27.20
2006,07,21,11,36,27.30
2006,07,21,11,37,27.20
2006,07,21,11,38,27.20
2006,07,21,11,39,27.20
2006,07,21,11,40,27.30
2006,07,21,11,41,27.30
2006,07,21,11,42,27.30
2006,07,21,11,43,27.30
2006,07,21,11,44,27.40
2006,07,21,11,45,27.60
2006,07,21,11,46,27.70
2006,07,21,11,47,27.70
2006,07,21,11,48,27.80
2006,07,21,11,49,27.80
2006,07,21,11,50,27.70
2006,07,21,11,51,27.70
2006,07,21,11,52,27.70
2006,07,21,11,53,27.70
2006,07,21,11,54,27.60
2006,07,21,11,55,27.60
2006,07,21,11,56,27.70
2006,07,21,11,57,27.60
2006,07,21,11,58,27.60
2006,07,21,11,59,27.70
2006,07,21,12,00,27.70
2006,07,21,12,01,27.80
2006,07,21,12,02,27.80
2006,07,21,12,03,27.70
2006,07,21,12,04,27.70
2006,07,21,12,05,27.70
2006,07,21,12,06,27.60
2006,07,21,12,07,27.50
2006,07,21,12,08,27.40
2006,07,21,12,09,27.40
2006,07,21,12,10,27.40
2006,07,21,12,11,27.50
2006,07,21,12,12,27.70
2006,07,21,12,13,27.80
2006,07,21,12,14,27.80
2006,07,21,12,15,27.80
2006,07,21,12,16,27.70
2006,07,21,12,17,27.70
2006,07,21,12,18,27.90
2006,07,21,12,19,27.90
2006,07,21,12,20,28.00
2006,07,21,12,21,28.20
2006,07,21,12,22,28.30
2006,07,21,12,23,28.30
2006,07,21,12,24,28.30
2006,07,21,12,25,28.40
2006,07,21,12,26,28.40
2006,07,21,12,27,28.50
2006,07,21,12,28,28.60
2006,07,21,12,29,28.60
2006,07,21,12,30,28.60
2006,07,21,12,31,28.40
2006,07,21,12,32,28.20
2006,07,21,12,33,28.10
2006,07,21,12,34,28.10
2006,07,21,12,35,28.20
2006,07,21,12,36,28.20
2006,07,21,12,37,28.20
2006,07,21,12,38,28.20
2006,07,21,12,39,28.20
2006,07,21,12,40,28.30
2006,07,21,12,41,28.30
2006,07,21,12,42,28.30
2006,07,21,12,43,28.20
2006,07,21,12,44,28.20
2006,07,21,12,45,28.10
2006,07,21,12,46,28.00
2006,07,21,12,47,28.00
2006,07,21,12,48,28.10
2006,07,21,12,49,28.20
2006,07,21,12,50,28.20
2006,07,21,12,51,28.20
2006,07,21,12,52,28.40
2006,07,21,12,53,28.40
2006,07,21,12,54,28.50
2006,07,21,12,55,28.60
2006,07,21,12,56,28.60
2006,07,21,12,57,28.60
2006,07,21,12,58,28.50
2006,07,21,12,59,28.40
2006,07,21,13,00,28.40
2006,07,21,13,01,28.40
2006,07,21,13,02,28.50
2006,07,21,13,03,28.60
2006,07,21,13,04,28.70
2006,07,21,13,05,28.70
2006,07,21,13,06,28.70
2006,07,21,13,07,28.80
2006,07,21,13,08,28.80
2006,07,21,13,09,28.90
2006,07,21,13,10,29.10
2006,07,21,13,11,29.30
2006,07,21,13,12,29.40
2006,07,21,13,13,29.40
2006,07,21,13,14,29.40
2006,07,21,13,15,29.20
2006,07,21,13,16,29.10
2006,07,21,13,17,28.90
2006,07,21,13,18,28.90
2006,07,21,13,19,28.90
2006,07,21,13,20,28.90
2006,07,21,13,21,28.90
2006,07,21,13,22,28.90
2006,07,21,13,23,28.90
2006,07,21,13,24,29.00
2006,07,21,13,25,28.90
2006,07,21,13,26,28.80
2006,07,21,13,27,28.80
2006,07,21,13,28,28.90
2006,07,21,13,29,29.00
2006,07,21,13,30,29.10
2006,07,21,13,31,29.20
2006,07,21,13,32,29.10
2006,07,21,13,33,29.00
2006,07,21,13,34,28.90
2006,07,21,13,35,28.90
2006,07,21,13,36,28.80
2006,07,21,13,37,28.80
2006,07,21,13,38,28.80
2006,07,21,13,39,28.70
2006,07,21,13,40,28.70
2006,07,21,13,41,28.70
2006,07,21,13,42,28.80
2006,07,21,13,43,28.80
2006,07,21,13,44,28.80
2006,07,21,13,45,28.80
2006,07,21,13,46,28.60
2006,07,21,13,47,28.40
2006,07,21,13,48,28.40
2006,07,21,13,49,28.40
2006,07,21,13,50,28.40
2006,07,21,13,51,28.40
2006,07,21,13,52,28.40
2006,07,21,13,53,28.50
2006,07,21,13,54,28.60
2006,07,21,13,55,28.70
2006,07,21,13,56,28.70
2006,07,21,13,57,28.80
2006,07,21,13,58,28.90
2006,07,21,13,59,28.90
2006,07,21,14,00,29.00
2006,07,21,14,01,29.10
2006,07,21,14,02,29.10
2006,07,21,14,03,28.90
2006,07,21,14,04,28.90
2006,07,21,14,05,28.90
2006,07,21,14,06,28.90
2006,07,21,14,07,29.00
2006,07,21,14,08,29.10
2006,07,21,14,09,29.20
2006,07,21,14,10,29.10
2006,07,21,14,11,29.00
2006,07,21,14,12,28.90
2006,07,21,14,13,28.90
2006,07,21,14,14,28.80
2006,07,21,14,15,28.80
2006,07,21,14,16,28.90
2006,07,21,14,17,29.00
2006,07,21,14,18,29.10
2006,07,21,14,19,29.30
2006,07,21,14,20,29.40
2006,07,21,14,21,29.60
2006,07,21,14,22,29.60
2006,07,21,14,23,29.60
2006,07,21,14,24,29.60
2006,07,21,14,25,29.60
2006,07,21,14,26,29.50
2006,07,21,14,27,29.40
2006,07,21,14,28,29.40
2006,07,21,14,29,29.50
2006,07,21,14,30,29.60
2006,07,21,14,31,29.60
2006,07,21,14,32,29.60
2006,07,21,14,33,29.60
2006,07,21,14,34,29.60
2006,07,21,14,35,29.60
2006,07,21,14,36,29.50
2006,07,21,14,37,29.50
2006,07,21,14,38,29.50
2006,07,21,14,39,29.50
2006,07,21,14,40,29.60
2006,07,21,14,41,29.60
2006,07,21,14,42,29.40
2006,07,21,14,43,29.40
2006,07,21,14,44,29.30
2006,07,21,14,45,29.30
2006,07,21,14,46,29.40
2006,07,21,14,47,29.40
2006,07,21,14,48,29.50
2006,07,21,14,49,29.50
2006,07,21,14,50,29.40
2006,07,21,14,51,29.30
2006,07,21,14,52,29.20
2006,07,21,14,53,29.10
2006,07,21,14,54,29.10
2006,07,21,14,55,29.10
2006,07,21,14,56,29.10
2006,07,21,14,57,29.10
2006,07,21,14,58,29.10
2006,07,21,14,59,29.10
2006,07,21,15,00,29.10
2006,07,21,15,01,29.10
2006,07,21,15,02,29.20
2006,07,21,15,03,29.20
2006,07,21,15,04,29.40
2006,07,21,15,05,29.50
2006,07,21,15,06,29.60
2006,07,21,15,07,29.70
2006,07,21,15,08,29.80
2006,07,21,15,09,29.80
2006,07,21,15,10,29.80
2006,07,21,15,11,29.80
2006,07,21,15,12,29.80
2006,07,21,15,13,29.50
2006,07,21,15,14,29.50
2006,07,21,15,15,29.50
2006,07,21,15,16,29.50
2006,07,21,15,17,29.60
2006,07,21,15,18,29.60
2006,07,21,15,19,29.70
2006,07,21,15,20,29.80
2006,07,21,15,21,29.80
2006,07,21,15,22,29.90
2006,07,21,15,23,30.00
2006,07,21,15,24,30.10
2006,07,21,15,25,30.20
2006,07,21,15,26,30.30
2006,07,21,15,27,30.30
2006,07,21,15,28,30.30
2006,07,21,15,29,30.20
2006,07,21,15,30,30.20
2006,07,21,15,31,30.30
2006,07,21,15,32,30.40
2006,07,21,15,33,30.40
2006,07,21,15,34,30.40
2006,07,21,15,35,30.40
2006,07,21,15,36,30.30
2006,07,21,15,37,30.30
2006,07,21,15,38,30.40
2006,07,21,15,39,30.40
2006,07,21,15,40,30.50
2006,07,21,15,41,30.60
2006,07,21,15,42,30.60
2006,07,21,15,43,30.40
2006,07,21,15,44,30.30
2006,07,21,15,45,30.30
2006,07,21,15,46,30.30
2006,07,21,15,47,30.30
2006,07,21,15,48,30.30
2006,07,21,15,49,30.20
2006,07,21,15,50,30.20
2006,07,21,15,51,30.20
2006,07,21,15,52,30.30
2006,07,21,15,53,30.30
2006,07,21,15,54,30.30
2006,07,21,15,55,30.20
2006,07,21,15,56,30.20
2006,07,21,15,57,30.30
2006,07,21,15,58,30.40
2006,07,21,15,59,30.50
2006,07,21,16,00,30.70
2006,07,21,16,01,30.80
2006,07,21,16,02,31.00
2006,07,21,16,03,31.10
2006,07,21,16,04,31.20
2006,07,21,16,05,31.20
2006,07,21,16,06,31.20
2006,07,21,16,07,31.20
2006,07,21,16,08,31.20
2006,07,21,16,09,31.20
2006,07,21,16,10,31.30
2006,07,21,16,11,31.30
2006,07,21,16,12,31.30
2006,07,21,16,13,31.30
2006,07,21,16,14,31.30
2006,07,21,16,15,31.40
2006,07,21,16,16,31.50
2006,07,21,16,17,31.70
2006,07,21,16,18,31.70
2006,07,21,16,19,31.70
2006,07,21,16,20,31.70
2006,07,21,16,21,31.70
2006,07,21,16,22,31.70
2006,07,21,16,23,31.70
2006,07,21,16,24,31.60
2006,07,21,16,25,31.30
2006,07,21,16,26,31.20
2006,07,21,16,27,31.10
2006,07,21,16,28,31.00
2006,07,21,16,29,31.00
2006,07,21,16,30,31.00
2006,07,21,16,31,30.90
2006,07,21,16,32,31.00
2006,07,21,16,33,31.10
2006,07,21,16,34,31.10
2006,07,21,16,35,31.20
2006,07,21,16,36,31.30
2006,07,21,16,37,31.40
2006,07,21,16,38,31.50
2006,07,21,16,39,31.60
2006,07,21,16,40,31.60
2006,07,21,16,41,31.70
2006,07,21,16,42,31.70
2006,07,21,16,43,31.70
2006,07,21,16,44,31.60
2006,07,21,16,45,31.60
2006,07,21,16,46,31.40
2006,07,21,16,47,31.30
2006,07,21,16,48,31.30
2006,07,21,16,49,31.30
2006,07,21,16,50,31.30
2006,07,21,16,51,31.30
2006,07,21,16,52,31.40
2006,07,21,16,53,31.40
2006,07,21,16,54,31.30
2006,07,21,16,55,31.40
2006,07,21,16,56,31.40
2006,07,21,16,57,31.50
2006,07,21,16,58,31.50
2006,07,21,16,59,31.50
2006,07,21,17,00,31.50
2006,07,21,17,01,31.50
2006,07,21,17,02,31.60
2006,07,21,17,03,31.60
2006,07,21,17,04,31.60
2006,07,21,17,05,31.60
2006,07,21,17,06,31.60
2006,07,21,17,07,31.60
2006,07,21,17,08,31.60
2006,07,21,17,09,31.60
2006,07,21,17,10,31.70
2006,07,21,17,11,31.70
2006,07,21,17,12,31.70
2006,07,21,17,13,31.70
2006,07,21,17,14,31.70
2006,07,21,17,15,31.70
2006,07,21,17,16,31.70
2006,07,21,17,17,31.70
2006,07,21,17,18,31.70
2006,07,21,17,19,31.70